This demonstration page uses our WeatherBlox Daily Observations layout. Learn more.

Left ArrowRight Arrow

Hourly Observations for March 18, 2020

Temp ( °F °C ) Dew Point ( °F °C ) Humidity (%) Winds ( mph kmh ) Pressure ( in mb ) Visibility ( mi km ) Precip ( " mm )
12:07 am 00:07 Cloudy with Light Rain 43 6.1 40 4.4 89 89 SSE 9 15 30.07 1018 3 4.82802 0.001 0.001
12:28 am 00:28 Cloudy with Mist and Fog 43 6.1 41 5 93 93 SSE 8 13 30.07 1018 4 6.43736 0.01 0.254
12:54 am 00:54 Cloudy with Light Rain 43 6.1 40 4.4 89 89 SE 6 9 30.03 1017 5 8.0467 0.01 0.254
1:54 am 01:54 Cloudy with Light Rain 43 6.1 40 4.4 89 89 SE 8 13 29.99 1016 5 8.0467 0.01 0.254
2:54 am 02:54 Cloudy with Mist and Fog 43 6.1 41 5 93 93 SSE 3 6 29.98 1015 5 8.0467 0.001 0.001
3:54 am 03:54 Cloudy with Mist and Fog 43 6.1 41 5 93 93 SE 3 6 29.96 1015 6 9.65604 0 0
4:15 am 04:15 Cloudy with Nearby Thunderstorms 44 6.7 41 5 89 89 SE 3 6 29.98 1015 6 9.65604 0 0
4:32 am 04:32 Cloudy with Rain 43 6.1 41 5 93 93 SSE 3 6 29.97 1015 4 6.43736 0.001 0.001
4:43 am 04:43 Cloudy with Nearby Thunderstorms 43 6.1 41 5 93 93 SE 3 6 29.97 1015 3 4.82802 0.01 0.254
4:54 am 04:54 Cloudy with Mist and Fog 43 6.1 42 5.6 97 97 Calm 29.94 1014 4 6.43736 0.03 0.762
5:31 am 05:31 Cloudy with Mist and Fog 43 6.1 42 5.6 97 97 ESE 5 7 29.95 1014 3 4.82802 0 0
5:54 am 05:54 Cloudy with Mist and Fog 44 6.7 42 5.6 93 93 SE 7 11 29.93 1013 4 6.43736 0 0
6:16 am 06:16 Cloudy with Mist and Fog 44 6.7 42 5.6 93 93 SE 6 9 29.95 1014 4 6.43736 0 0
6:54 am 06:54 Cloudy with Light Rain 44 6.7 42 5.6 93 93 ENE 3 6 29.93 1014 2 3.21868 0.001 0.001
7:29 am 07:29 Cloudy with Mist and Fog 43 6.1 42 5.6 97 97 N 6 9 29.96 1015 3 4.82802 0.001 0.001
7:54 am 07:54 Cloudy with Mist and Fog 43 6.1 41 5 93 93 N 5 7 29.95 1014 4 6.43736 0.001 0.001
8:54 am 08:54 Cloudy with Mist and Fog 44 6.7 42 5.6 93 93 NNE 5 7 29.96 1014 2.5 4.02335 0 0
9:44 am 09:44 Cloudy with Mist and Fog 45 7.2 43 6.1 93 93 NNE 6 9 29.97 1015 3 4.82802 0 0
9:54 am 09:54 Cloudy with Mist and Fog 45 7.2 43 6.1 93 93 NNE 6 9 29.96 1015 4 6.43736 0 0
11:54 am 11:54 Cloudy 49 9.4 45 7.2 86 86 ENE 5 7 29.97 1015 8 12.87472 0 0
12:54 pm 12:54 Cloudy 50 10 45 7.2 83 83 ENE 3 6 29.95 1014 10 16.0934 0 0
1:54 pm 13:54 Cloudy 51 10.6 46 7.8 83 83 NE 6 9 29.93 1014 10 16.0934 0 0
2:54 pm 14:54 Cloudy 52 11.1 46 7.8 80 80 ENE 9 15 29.92 1013 10 16.0934 0 0
3:03 pm 15:03 Cloudy 52 11.1 46 7.8 80 80 ENE 6 9 29.92 1013 10 16.0934 0 0
3:54 pm 15:54 Cloudy 53 11.7 46 7.8 77 77 E 5 7 29.92 1013 10 16.0934 0 0
4:54 pm 16:54 Cloudy 54 12.2 47 8.3 77 77 ENE 7 11 29.91 1013 10 16.0934 0 0
5:54 pm 17:54 Cloudy 53 11.7 47 8.3 80 80 ESE 8 13 29.93 1013 10 16.0934 0 0
6:54 pm 18:54 Cloudy 52 11.1 47 8.3 83 83 ESE 8 13 29.94 1014 10 16.0934 0 0
7:54 pm 19:54 Cloudy 52 11.1 47 8.3 83 83 E 6 9 29.94 1014 10 16.0934 0 0
8:54 pm 20:54 Cloudy 52 11.1 47 8.3 83 83 E 3 6 29.94 1014 10 16.0934 0 0
9:54 pm 21:54 Cloudy 52 11.1 47 8.3 83 83 ENE 3 6 29.93 1014 10 16.0934 0 0
10:36 pm 22:36 Cloudy 52 11.1 47 8.3 83 83 E 6 9 29.93 1013 10 16.0934 0 0
10:54 pm 22:54 Cloudy 51 10.6 47 8.3 86 86 E 7 11 29.91 1013 10 16.0934 0 0
11:54 pm 23:54 Cloudy 51 10.6 48 8.9 89 89 E 6 9 29.91 1013 8 12.87472 0 0

Powered by AerisWeather